GW0658 Weather Reports


Display with metric or nautical units.
time (UTC)temp
F
wind
direction
speed
MPH
gust
MPH
rain 1hr
in
rain 24hr
in
rain mn
in
humidity
%
barometer
mb
20260507185517 68 244 3.0 6.0 0.00 0.00 0.00 68 1022.1
20260507185016 68 214 2.0 5.0 0.00 0.00 0.00 66 1022.1
20260507184541 68 261 2.0 6.0 0.00 0.00 0.00 69 1022.0
20260507184019 68 245 3.0 6.0 0.00 0.00 0.00 67 1022.1
20260507183520 68 265 2.0 5.0 0.00 0.00 0.00 68 1022.1
20260507183041 68 255 1.0 5.0 0.00 0.00 0.00 68 1022.1
20260507182516 68 238 2.0 5.0 0.00 0.00 0.00 69 1022.1
20260507182016 68 272 2.0 5.0 0.00 0.00 0.00 72 1022.1
20260507181534 67 219 3.0 7.0 0.00 0.00 0.00 72 1022.1
20260507181021 67 268 3.0 7.0 0.00 0.00 0.00 72 1022.1
20260507180517 67 253 3.0 7.0 0.00 0.00 0.00 69 1022.0
20260507180034 67 243 1.0 4.0 0.00 0.00 0.00 72 1021.9
20260507175517 67 0 1.0 5.0 0.00 0.00 0.00 68 1022.0
20260507175019 67 214 1.0 5.0 0.00 0.00 0.00 68 1021.9
20260507174535 66 254 1.0 5.0 0.00 0.00 0.00 68 1022.0
20260507174018 66 0 1.0 6.0 0.00 0.00 0.00 67 1021.9
20260507173520 66 209 1.0 6.0 0.00 0.00 0.00 71 1021.9
20260507173035 66 219 1.0 4.0 0.00 0.00 0.00 66 1021.9
20260507172518 66 218 1.0 4.0 0.00 0.00 0.00 67 1021.9
20260507172018 65 227 0.0 3.0 0.00 0.00 0.00 68 1021.8
20260507171544 65 0 0.0 4.0 0.00 0.00 0.00 70 1021.8
20260507171020 65 0 0.0 4.0 0.00 0.00 0.00 72 1021.8
20260507170516 64 219 1.0 3.0 0.00 0.00 0.00 71 1021.8
20260507170046 64 103 1.0 4.0 0.00 0.00 0.00 73 1021.9
20260507165519 64 225 1.0 4.0 0.00 0.00 0.00 75 1021.8
20260507165020 63 223 2.0 3.0 0.00 0.00 0.00 73 1021.8
20260507164536 63 227 1.0 3.0 0.00 0.00 0.00 77 1021.9
20260507164019 62 0 1.0 4.0 0.00 0.00 0.00 78 1021.8
20260507163519 62 247 1.0 4.0 0.00 0.00 0.00 76 1021.9
20260507163038 61 0 0.0 4.0 0.00 0.00 0.00 78 1021.8
20260507162518 61 247 1.0 3.0 0.00 0.00 0.00 78 1021.8
20260507162021 60 245 1.0 3.0 0.00 0.00 0.00 79 1021.8
20260507161533 60 241 1.0 3.0 0.00 0.00 0.00 81 1021.8
20260507161018 60 0 1.0 3.0 0.00 0.00 0.00 81 1021.8
20260507160518 59 235 1.0 3.0 0.00 0.00 0.00 82 1021.7
20260507160055 58 235 0.0 3.0 0.00 0.00 0.00 84 1021.7
20260507155521 58 235 1.0 3.0 0.00 0.00 0.00 86 1021.7
20260507155018 57 223 0.0 3.0 0.00 0.00 0.00 87 1021.7
20260507154540 56 0 0.0 0.0 0.00 0.00 0.00 87 1021.6
20260507154017 56 0 0.0 0.0 0.00 0.00 0.00 87 1021.6
20260507153519 55 0 0.0 0.0 0.00 0.00 0.00 88 1021.6
20260507153039 55 0 0.0 0.0 0.00 0.00 0.00 89 1021.6
20260507152517 55 0 0.0 0.0 0.00 0.00 0.00 90 1021.6
20260507152018 55 0 0.0 0.0 0.00 0.00 0.00 91 1021.6
20260507151534 55 0 0.0 0.0 0.00 0.00 0.00 91 1021.6
20260507151019 55 0 0.0 0.0 0.00 0.00 0.00 90 1021.6
20260507150517 54 0 0.0 0.0 0.00 0.00 0.00 91 1021.6
20260507150034 54 0 0.0 0.0 0.00 0.00 0.00 91 1021.5
20260507145517 54 0 0.0 0.0 0.00 0.00 0.00 91 1021.5
20260507145017 54 0 0.0 0.0 0.00 0.00 0.00 91 1021.5
20260507144544 54 0 0.0 0.0 0.00 0.00 0.00 91 1021.4
20260507144023 54 0 0.0 0.0 0.00 0.00 0.00 91 1021.5
20260507143518 53 0 0.0 0.0 0.00 0.00 0.00 92 1021.5
20260507143044 53 0 0.0 0.0 0.00 0.00 0.00 92 1021.4
20260507142518 53 0 0.0 0.0 0.00 0.00 0.00 92 1021.5
20260507142017 53 0 0.0 0.0 0.00 0.00 0.00 92 1021.5
20260507141541 53 0 0.0 0.0 0.00 0.00 0.00 93 1021.5
20260507141021 53 0 0.0 0.0 0.00 0.00 0.00 93 1021.3
20260507140517 53 0 0.0 0.0 0.00 0.00 0.00 93 1021.4
20260507140041 53 0 0.0 0.0 0.00 0.00 0.00 93 1021.3
20260507135517 53 0 0.0 0.0 0.00 0.00 0.00 93 1021.2
20260507135018 52 0 0.0 0.0 0.00 0.00 0.00 93 1021.2
20260507134535 52 0 0.0 2.0 0.00 0.00 0.00 93 1021.0
20260507134019 52 0 0.0 2.0 0.00 0.00 0.00 93 1021.1
20260507133518 52 84 0.0 2.0 0.00 0.00 0.00 93 1021.0
20260507133046 52 84 0.0 2.0 0.00 0.00 0.00 93 1021.0
20260507132517 52 91 0.0 3.0 0.00 0.00 0.00 93 1021.0
20260507132017 52 86 1.0 3.0 0.00 0.00 0.00 93 1021.0
20260507131537 52 79 0.0 3.0 0.00 0.00 0.00 93 1020.9
20260507131018 52 0 0.0 0.0 0.00 0.00 0.00 93 1020.9
20260507130520 52 0 0.0 0.0 0.00 0.00 0.00 93 1020.9
20260507130042 52 0 0.0 0.0 0.00 0.00 0.00 93 1020.9
20260507125516 52 0 0.0 0.0 0.00 0.00 0.00 93 1020.9
20260507125018 52 0 0.0 0.0 0.00 0.00 0.00 93 1020.9
20260507124540 52 0 0.0 0.0 0.00 0.00 0.00 93 1020.8
20260507124017 52 0 0.0 0.0 0.00 0.00 0.00 93 1020.8
20260507123517 52 0 0.0 0.0 0.00 0.00 0.00 93 1020.9
20260507123044 52 0 0.0 0.0 0.00 0.00 0.00 93 1020.8
20260507122515 52 0 0.0 0.0 0.00 0.00 0.00 93 1020.8
20260507122020 52 0 0.0 0.0 0.00 0.00 0.00 93 1020.9
20260507121537 52 0 0.0 0.0 0.00 0.00 0.00 93 1020.8
20260507121016 52 0 0.0 0.0 0.00 0.00 0.00 93 1020.9
20260507120516 52 0 0.0 0.0 0.00 0.00 0.00 93 1020.9
20260507120034 52 0 0.0 0.0 0.00 0.00 0.00 93 1020.9
20260507115516 52 0 0.0 0.0 0.00 0.00 0.00 93 1020.9
20260507115017 52 0 0.0 0.0 0.00 0.00 0.00 93 1020.9
20260507114534 52 0 0.0 0.0 0.00 0.00 0.00 93 1020.9
20260507114017 52 0 0.0 0.0 0.00 0.00 0.00 93 1020.9
20260507113518 52 0 0.0 0.0 0.00 0.00 0.00 93 1020.9
20260507113037 52 0 0.0 0.0 0.00 0.00 0.00 93 1020.9
20260507112516 52 0 0.0 0.0 0.00 0.00 0.00 93 1020.9
20260507112016 52 0 0.0 0.0 0.00 0.00 0.00 93 1020.9
20260507111552 52 0 0.0 0.0 0.00 0.00 0.00 93 1020.9
20260507111019 52 0 0.0 0.0 0.00 0.00 0.00 93 1020.9
20260507110516 52 0 0.0 0.0 0.00 0.00 0.00 93 1020.9
20260507110040 52 0 0.0 0.0 0.00 0.00 0.00 93 1020.9
20260507105519 52 0 0.0 0.0 0.00 0.01 0.00 93 1020.9
20260507105021 52 0 0.0 0.0 0.00 0.01 0.00 93 1020.9
20260507104535 52 0 0.0 0.0 0.00 0.01 0.00 93 1020.9
20260507104020 52 0 0.0 0.0 0.00 0.01 0.00 93 1020.9
20260507103520 52 0 0.0 0.0 0.00 0.01 0.00 93 1020.8
20260507103035 52 0 0.0 2.0 0.00 0.01 0.00 92 1020.7
20260507102520 52 0 0.0 2.0 0.00 0.01 0.00 93 1020.8
20260507102019 52 82 1.0 2.0 0.00 0.01 0.00 93 1020.8
20260507101546 53 0 0.0 0.0 0.00 0.01 0.00 94 1020.8
20260507101023 53 0 0.0 0.0 0.00 0.01 0.00 94 1020.8
20260507100521 53 0 0.0 0.0 0.00 0.01 0.00 94 1020.9
20260507100042 53 0 0.0 0.0 0.00 0.01 0.00 94 1020.9
20260507095519 53 0 0.0 2.0 0.00 0.01 0.00 94 1020.8
20260507095020 52 0 0.0 2.0 0.00 0.01 0.00 93 1020.9
20260507094543 52 82 1.0 2.0 0.00 0.01 0.00 93 1020.7
20260507094019 52 0 0.0 2.0 0.00 0.01 0.00 93 1020.8
20260507093519 52 0 0.0 2.0 0.00 0.01 0.00 93 1020.9
20260507093044 52 80 0.0 2.0 0.00 0.01 0.00 92 1021.0
20260507092520 52 80 1.0 2.0 0.00 0.01 0.00 93 1021.0
20260507092019 52 0 0.0 3.0 0.00 0.01 0.00 93 1021.2
20260507091542 53 0 0.0 3.0 0.00 0.01 0.00 93 1021.1
20260507091019 53 80 1.0 3.0 0.00 0.01 0.00 93 1021.1
20260507090522 53 74 2.0 3.0 0.00 0.01 0.00 93 1021.3
20260507090037 53 74 0.0 3.0 0.00 0.01 0.00 93 1021.3
20260507085520 53 71 1.0 3.0 0.00 0.01 0.00 93 1021.2
20260507085019 53 71 2.0 3.0 0.00 0.01 0.00 93 1021.3
20260507084544 53 70 1.0 3.0 0.00 0.01 0.00 93 1021.3
20260507084025 53 0 0.0 3.0 0.00 0.01 0.00 93 1021.3
20260507083519 53 70 1.0 3.0 0.00 0.01 0.00 93 1021.3
20260507083042 53 67 2.0 3.0 0.00 0.01 0.00 93 1021.3
20260507082520 53 0 0.0 0.0 0.00 0.01 0.00 93 1021.3
20260507082017 53 0 0.0 0.0 0.00 0.01 0.00 93 1021.3
20260507081538 53 0 0.0 0.0 0.00 0.01 0.00 93 1021.4
20260507081020 53 0 0.0 0.0 0.00 0.01 0.00 93 1021.3
20260507080524 53 0 0.0 0.0 0.00 0.01 0.00 93 1021.3
20260507080039 53 0 0.0 0.0 0.00 0.01 0.00 93 1021.3
20260507075517 53 0 0.0 0.0 0.00 0.01 0.00 93 1021.3
20260507075020 53 0 0.0 0.0 0.00 0.01 0.00 93 1021.3
20260507074550 53 0 0.0 0.0 0.00 0.01 0.00 93 1021.3
20260507074019 53 0 0.0 0.0 0.00 0.01 0.00 93 1021.5
20260507073523 53 0 0.0 0.0 0.00 0.01 0.00 93 1021.5
20260507073035 54 0 0.0 0.0 0.00 0.01 0.00 92 1021.4
20260507072520 54 0 0.0 0.0 0.00 0.01 0.00 92 1021.5
20260507072019 54 0 0.0 0.0 0.00 0.01 0.00 93 1021.5
20260507071541 54 0 0.0 0.0 0.00 0.01 0.00 93 1021.5
20260507071017 54 0 0.0 0.0 0.00 0.01 0.00 93 1021.5
20260507070517 54 0 0.0 0.0 0.00 0.01 0.00 93 1021.4
20260507070048 54 0 0.0 0.0 0.00 0.01 0.00 93 1021.5
20260507065520 54 0 0.0 0.0 0.00 0.01 0.01 93 1021.5
20260507065018 54 0 0.0 0.0 0.00 0.01 0.01 93 1021.5
20260507064550 54 0 0.0 0.0 0.00 0.01 0.01 93 1021.5
20260507064020 54 0 0.0 0.0 0.00 0.01 0.01 93 1021.5
20260507063520 54 0 0.0 0.0 0.00 0.01 0.01 93 1021.4
20260507063038 54 0 0.0 0.0 0.00 0.01 0.01 93 1021.5
20260507062519 54 0 0.0 0.0 0.00 0.01 0.01 93 1021.6
20260507062020 54 0 0.0 0.0 0.00 0.01 0.01 92 1021.6
20260507061534 54 0 0.0 0.0 0.00 0.01 0.01 92 1021.5
20260507061019 54 0 0.0 0.0 0.00 0.01 0.01 92 1021.5
20260507060520 54 0 0.0 0.0 0.00 0.01 0.01 93 1021.5
20260507060049 54 0 0.0 0.0 0.00 0.01 0.01 93 1021.5
20260507055520 54 0 0.0 0.0 0.00 0.01 0.01 93 1021.4
20260507055019 54 0 0.0 0.0 0.00 0.01 0.01 93 1021.4
20260507054542 54 0 0.0 0.0 0.00 0.01 0.01 93 1021.4
20260507054022 54 0 0.0 0.0 0.00 0.01 0.01 93 1021.4
20260507053520 54 0 0.0 0.0 0.00 0.01 0.01 93 1021.4
20260507053044 54 0 0.0 0.0 0.00 0.01 0.01 93 1021.4
20260507052520 54 0 0.0 0.0 0.00 0.01 0.01 93 1021.3
20260507052021 54 0 0.0 0.0 0.00 0.01 0.01 93 1021.3
20260507051540 53 0 0.0 0.0 0.00 0.01 0.01 92 1021.4
20260507051020 54 0 0.0 0.0 0.00 0.01 0.01 92 1021.5
20260507050520 54 0 0.0 0.0 0.00 0.01 0.01 92 1021.4
20260507050042 54 0 0.0 0.0 0.00 0.01 0.01 92 1021.3
20260507045520 54 0 0.0 0.0 0.00 0.01 0.01 92 1021.4
20260507045021 54 0 0.0 0.0 0.00 0.01 0.01 92 1021.3
20260507044535 54 0 0.0 0.0 0.00 0.01 0.01 92 1021.4
20260507044019 54 0 0.0 0.0 0.00 0.01 0.01 92 1021.3
20260507043524 54 0 0.0 0.0 0.00 0.01 0.01 92 1021.3
20260507043035 54 0 0.0 0.0 0.00 0.01 0.01 92 1021.2
20260507042520 54 0 0.0 0.0 0.00 0.01 0.01 92 1021.1
20260507042019 54 0 0.0 0.0 0.00 0.01 0.01 91 1021.1
20260507041551 54 0 0.0 0.0 0.00 0.01 0.01 91 1021.0
20260507041019 54 0 0.0 0.0 0.00 0.01 0.01 91 1021.1
20260507040520 54 0 0.0 0.0 0.00 0.01 0.01 90 1021.0
20260507040041 54 0 0.0 0.0 0.00 0.01 0.01 90 1021.0
20260507035519 54 0 0.0 0.0 0.00 0.01 0.01 90 1021.0
20260507035020 54 0 0.0 0.0 0.00 0.01 0.01 90 1020.9
20260507034539 54 0 0.0 0.0 0.00 0.01 0.01 90 1020.9
20260507034019 54 0 0.0 0.0 0.00 0.01 0.01 90 1020.9
20260507033519 55 0 0.0 0.0 0.00 0.01 0.01 89 1020.8
20260507033036 55 0 0.0 2.0 0.00 0.01 0.01 89 1020.7
20260507032519 55 0 0.0 2.0 0.00 0.01 0.01 88 1020.7
20260507032019 56 0 0.0 2.0 0.00 0.01 0.01 87 1020.7
20260507031534 56 0 0.0 2.0 0.00 0.01 0.01 87 1020.7
20260507031020 57 0 0.0 2.0 0.00 0.01 0.01 86 1020.6
20260507030518 57 0 0.0 0.0 0.00 0.01 0.01 85 1020.6
20260507030033 58 0 0.0 0.0 0.00 0.01 0.01 84 1020.6
20260507025522 58 0 0.0 1.0 0.00 0.01 0.01 84 1020.6
20260507025019 59 0 0.0 1.0 0.00 0.01 0.01 84 1020.6
20260507024542 59 238 0.0 2.0 0.00 0.01 0.01 84 1020.6
20260507024021 59 0 0.0 2.0 0.00 0.01 0.01 83 1020.5
20260507023517 60 0 0.0 2.0 0.00 0.01 0.01 83 1020.4
20260507023041 60 0 0.0 2.0 0.00 0.01 0.01 83 1020.4
20260507022517 60 238 1.0 3.0 0.00 0.01 0.01 82 1020.4
20260507022016 60 238 0.0 3.0 0.00 0.01 0.01 82 1020.4
20260507021537 61 238 1.0 3.0 0.00 0.01 0.01 82 1020.3
20260507021022 61 202 1.0 4.0 0.00 0.01 0.01 81 1020.4
20260507020517 61 202 2.0 5.0 0.00 0.01 0.01 81 1020.3
20260507020036 62 223 2.0 5.0 0.00 0.01 0.01 81 1020.2
20260507015517 62 0 1.0 7.0 0.00 0.02 0.01 80 1020.2
20260507015024 62 246 2.0 7.0 0.00 0.02 0.01 79 1020.3
20260507014548 63 238 2.0 6.0 0.00 0.02 0.01 77 1020.2
20260507014017 63 240 2.0 5.0 0.00 0.02 0.01 77 1020.2
20260507013517 63 240 2.0 5.0 0.00 0.02 0.01 77 1020.2
20260507013044 63 233 2.0 7.0 0.00 0.02 0.01 77 1020.3
20260507012520 63 232 2.0 7.0 0.00 0.02 0.01 78 1020.2
20260507012023 63 246 2.0 5.0 0.00 0.02 0.01 78 1020.3
20260507011538 63 243 2.0 5.0 0.00 0.02 0.01 78 1020.2
20260507011019 63 238 2.0 5.0 0.00 0.02 0.01 78 1020.2
20260507010520 63 223 3.0 5.0 0.00 0.02 0.01 77 1020.2
20260507010041 63 206 3.0 5.0 0.00 0.02 0.01 77 1020.3
20260507005518 64 238 2.0 5.0 0.00 0.03 0.01 77 1020.1
20260507005019 64 236 2.0 7.0 0.00 0.03 0.01 76 1020.1
20260507004539 64 237 2.0 7.0 0.00 0.03 0.01 76 1020.2
20260507004019 64 230 2.0 5.0 0.00 0.03 0.01 75 1020.2
20260507003519 65 238 3.0 5.0 0.00 0.03 0.01 75 1020.1
20260507003037 65 212 2.0 5.0 0.00 0.03 0.01 75 1020.1
20260507002517 65 218 2.0 5.0 0.00 0.03 0.01 75 1020.1
20260507002017 65 263 2.0 6.0 0.00 0.03 0.01 75 1020.1
20260507001539 65 219 3.0 6.0 0.00 0.03 0.01 74 1020.2
20260507001018 64 246 2.0 5.0 0.00 0.03 0.01 76 1020.2
20260507000521 64 196 1.0 7.0 0.00 0.03 0.01 75 1020.2
20260507000035 64 228 2.0 8.0 0.00 0.03 0.01 75 1020.1
20260506235517 64 224 0.0 8.0 0.00 0.03 0.01 76 1020.2
20260506235017 64 233 3.0 7.0 0.00 0.03 0.01 75 1020.2
20260506234533 64 0 1.0 8.0 0.00 0.03 0.01 75 1020.2
20260506234017 64 245 2.0 8.0 0.00 0.03 0.01 74 1020.3
20260506233517 64 263 1.0 5.0 0.00 0.03 0.01 78 1020.3
20260506233040 64 238 3.0 5.0 0.00 0.03 0.01 76 1020.2
20260506232522 64 182 2.0 8.0 0.00 0.03 0.01 74 1020.3
20260506232019 64 245 3.0 8.0 0.00 0.03 0.01 75 1020.4
20260506231546 64 232 1.0 9.0 0.00 0.03 0.01 76 1020.2
20260506231017 64 213 2.0 9.0 0.00 0.03 0.01 76 1020.4
20260506230517 65 286 2.0 9.0 0.00 0.03 0.01 76 1020.5
20260506230038 64 227 5.0 8.0 0.00 0.03 0.01 75 1020.6
20260506225521 64 243 3.0 8.0 0.00 0.03 0.01 75 1020.7
20260506225016 64 232 3.0 8.0 0.00 0.03 0.01 74 1020.7
20260506224535 65 260 4.0 8.0 0.00 0.03 0.01 76 1020.7
20260506224016 65 263 4.0 8.0 0.00 0.03 0.01 75 1020.7
20260506223517 64 224 2.0 8.0 0.00 0.03 0.01 75 1020.7
20260506223058 64 263 3.0 8.0 0.00 0.03 0.01 77 1020.7
20260506222517 64 257 3.0 8.0 0.00 0.03 0.01 75 1020.7
20260506222020 65 259 3.0 7.0 0.00 0.03 0.01 76 1020.8
20260506221541 64 272 2.0 7.0 0.00 0.03 0.01 75 1020.9
20260506221019 64 221 3.0 7.0 0.00 0.03 0.01 75 1020.9
20260506220520 63 231 2.0 9.0 0.00 0.03 0.01 77 1020.9
20260506220041 64 237 3.0 9.0 0.00 0.03 0.01 74 1021.0
20260506215520 64 229 2.0 6.0 0.00 0.04 0.01 74 1021.0
20260506215019 64 306 2.0 6.0 0.00 0.04 0.01 72 1021.0
20260506214542 64 250 2.0 5.0 0.00 0.04 0.01 74 1021.1
20260506214020 64 229 2.0 7.0 0.00 0.04 0.01 75 1021.2
20260506213519 64 265 2.0 7.0 0.00 0.04 0.01 74 1021.2
20260506213037 64 242 2.0 7.0 0.00 0.04 0.01 76 1021.3
20260506212519 63 352 1.0 7.0 0.00 0.04 0.01 75 1021.3
20260506212017 63 252 3.0 7.0 0.00 0.04 0.01 73 1021.3
20260506211533 63 229 2.0 7.0 0.00 0.04 0.01 75 1021.4
20260506211017 63 223 3.0 7.0 0.00 0.04 0.01 76 1021.3
20260506210517 63 249 2.0 4.0 0.00 0.04 0.01 77 1021.4
20260506210042 63 218 0.0 6.0 0.00 0.04 0.01 72 1021.4
20260506205517 63 199 2.0 6.0 0.00 0.04 0.01 73 1021.5
20260506205018 62 203 1.0 8.0 0.00 0.04 0.01 79 1021.5
20260506204541 62 257 3.0 9.0 0.00 0.04 0.01 76 1021.5
20260506204017 62 226 3.0 9.0 0.00 0.04 0.01 77 1021.6
20260506203517 62 268 2.0 5.0 0.00 0.04 0.01 76 1021.6
20260506203045 61 201 2.0 7.0 0.00 0.04 0.01 78 1021.5
20260506202517 61 286 2.0 7.0 0.00 0.04 0.01 77 1021.5
20260506202017 61 185 2.0 8.0 0.00 0.04 0.01 77 1021.5
20260506201540 61 248 2.0 8.0 0.00 0.04 0.01 78 1021.6
20260506201019 61 274 2.0 6.0 0.00 0.04 0.01 77 1021.6
20260506200517 61 234 1.0 8.0 0.00 0.04 0.01 80 1021.6
20260506195517 61 261 3.0 7.0 0.00 0.04 0.01 78 1021.5
20260506195019 60 277 2.0 7.0 0.00 0.04 0.01 78 1021.6
20260506194538 60 238 2.0 7.0 0.00 0.04 0.01 80 1021.6
20260506194017 60 273 2.0 7.0 0.00 0.04 0.01 76 1021.7
20260506193520 60 248 4.0 7.0 0.00 0.04 0.01 78 1021.7
20260506193033 60 272 3.0 7.0 0.00 0.04 0.01 79 1021.7
20260506192519 59 206 3.0 7.0 0.00 0.04 0.01 79 1021.8
20260506192019 59 136 2.0 5.0 0.00 0.04 0.01 76 1021.7
20260506191534 59 240 3.0 5.0 0.00 0.04 0.01 80 1021.8
20260506191019 59 293 2.0 7.0 0.00 0.04 0.01 80 1021.8
20260506190519 58 249 3.0 7.0 0.00 0.04 0.01 79 1021.8
20260506190042 58 272 1.0 5.0 0.00 0.04 0.01 81 1021.8